Time,TemperatureF,DewpointF,PressureIn,WindDirection,WindDirectionDegrees,WindSpeedMPH,WindSpeedGustMPH,Humidity,HourlyPrecipIn,Conditions,Clouds,dailyrainin,SoftwareType,DateUTC
2013-01-19 00:03:00,30.0,25.0,30.37,SSW,207,0.0,0.0,81,0.00,,,0.00,,2013-01-19 05:03:00,
2013-01-19 00:12:00,30.0,25.0,30.37,SSW,207,0.0,0.0,81,0.00,,,0.00,,2013-01-19 05:12:00,
2013-01-19 00:23:00,30.0,25.0,30.37,SSW,207,0.0,0.0,82,0.00,,,0.00,,2013-01-19 05:23:00,
2013-01-19 00:33:00,29.0,24.0,30.37,SSW,207,0.0,0.0,80,0.00,,,0.00,,2013-01-19 05:33:00,
2013-01-19 00:43:00,29.0,24.0,30.37,SSW,207,0.0,0.0,80,0.00,,,0.00,,2013-01-19 05:43:00,
2013-01-19 00:53:00,29.0,23.0,30.37,SSW,207,0.0,0.0,79,0.00,,,0.00,,2013-01-19 05:53:00,
2013-01-19 01:03:00,29.0,23.0,30.37,SSW,207,0.0,0.0,79,0.00,,,0.00,,2013-01-19 06:03:00,
2013-01-19 01:12:00,29.0,23.0,30.37,SSW,207,0.0,0.0,79,0.00,,,0.00,,2013-01-19 06:12:00,
2013-01-19 01:22:00,29.0,24.0,30.37,SSW,207,0.0,0.0,81,0.00,,,0.00,,2013-01-19 06:22:00,
2013-01-19 01:33:00,29.0,24.0,30.36,SSW,207,0.0,0.0,82,0.00,,,0.00,,2013-01-19 06:33:00,
2013-01-19 01:43:00,29.0,24.0,30.36,SSW,207,0.0,0.0,82,0.00,,,0.00,,2013-01-19 06:43:00,
2013-01-19 01:53:00,29.0,24.0,30.36,SSW,207,0.0,0.0,82,0.00,,,0.00,,2013-01-19 06:53:00,
2013-01-19 02:02:00,28.0,24.0,30.36,SSW,207,0.0,0.0,85,0.00,,,0.00,,2013-01-19 07:02:00,
2013-01-19 02:12:00,28.0,24.0,30.36,SSW,207,0.0,0.0,85,0.00,,,0.00,,2013-01-19 07:12:00,
2013-01-19 02:22:00,28.0,24.0,30.36,SSW,207,0.0,0.0,85,0.00,,,0.00,,2013-01-19 07:22:00,
2013-01-19 02:33:00,28.0,24.0,30.35,SSW,207,0.0,0.0,83,0.00,,,0.00,,2013-01-19 07:33:00,
2013-01-19 02:43:00,28.0,24.0,30.35,SSW,207,0.0,0.0,83,0.00,,,0.00,,2013-01-19 07:43:00,
2013-01-19 02:53:00,28.0,24.0,30.35,SSW,207,0.0,0.0,83,0.00,,,0.00,,2013-01-19 07:53:00,
2013-01-19 03:02:00,28.0,24.0,30.35,SSW,207,0.0,0.0,85,0.00,,,0.00,,2013-01-19 08:02:00,
2013-01-19 03:12:00,28.0,24.0,30.35,SSW,207,0.0,0.0,85,0.00,,,0.00,,2013-01-19 08:12:00,
2013-01-19 03:22:00,28.0,24.0,30.35,SSW,207,0.0,0.0,85,0.00,,,0.00,,2013-01-19 08:22:00,
2013-01-19 03:32:00,27.0,24.0,30.36,SSW,207,0.0,0.0,87,0.00,,,0.00,,2013-01-19 08:32:00,
2013-01-19 03:43:00,27.0,24.0,30.36,SSW,207,0.0,0.0,87,0.00,,,0.00,,2013-01-19 08:43:00,
2013-01-19 03:53:00,27.0,24.0,30.35,SSW,207,0.0,2.0,89,0.00,,,0.00,,2013-01-19 08:53:00,
2013-01-19 04:02:00,29.0,25.0,30.35,WNW,289,0.0,1.0,85,0.00,,,0.00,,2013-01-19 09:02:00,
2013-01-19 04:12:00,29.0,25.0,30.35,WNW,289,0.0,1.0,85,0.00,,,0.00,,2013-01-19 09:12:00,
2013-01-19 04:23:00,29.0,24.0,30.34,SE,130,0.0,2.0,82,0.00,,,0.00,,2013-01-19 09:23:00,
2013-01-19 04:33:00,29.0,25.0,30.35,SE,130,0.0,0.0,83,0.00,,,0.00,,2013-01-19 09:33:00,
2013-01-19 04:42:00,29.0,25.0,30.35,SE,130,0.0,0.0,83,0.00,,,0.00,,2013-01-19 09:42:00,
2013-01-19 04:53:00,28.0,24.0,30.35,SE,130,0.0,1.0,85,0.00,,,0.00,,2013-01-19 09:53:00,
2013-01-19 05:02:00,28.0,24.0,30.35,SE,130,0.0,0.0,84,0.00,,,0.00,,2013-01-19 10:02:00,
2013-01-19 05:12:00,28.0,24.0,30.35,SE,130,0.0,0.0,84,0.00,,,0.00,,2013-01-19 10:12:00,
2013-01-19 05:23:00,28.0,24.0,30.35,ESE,111,0.0,1.0,84,0.00,,,0.00,,2013-01-19 10:23:00,
2013-01-19 05:32:00,28.0,24.0,30.35,ENE,69,0.0,1.0,83,0.00,,,0.00,,2013-01-19 10:32:00,
2013-01-19 05:43:00,28.0,24.0,30.35,ENE,69,0.0,1.0,83,0.00,,,0.00,,2013-01-19 10:43:00,
2013-01-19 05:53:00,28.0,23.0,30.34,East,86,0.0,2.0,82,0.00,,,0.00,,2013-01-19 10:53:00,
2013-01-19 06:03:00,29.0,24.0,30.34,SW,219,0.0,4.0,80,0.00,,,0.00,,2013-01-19 11:03:00,
2013-01-19 06:12:00,29.0,24.0,30.34,SW,219,0.0,4.0,80,0.00,,,0.00,,2013-01-19 11:12:00,
2013-01-19 07:48:00,28.0,22.0,30.32,SW,219,0.0,0.0,78,0.00,,,0.00,,2013-01-19 12:48:00,
2013-01-19 07:53:00,28.0,22.0,30.32,SW,219,0.0,0.0,79,0.00,,,0.00,,2013-01-19 12:53:00,
2013-01-19 08:03:00,27.0,22.0,30.33,SW,219,0.0,0.0,80,0.00,,,0.00,,2013-01-19 13:03:00,
2013-01-19 08:13:00,27.0,22.0,30.33,SW,219,0.0,0.0,80,0.00,,,0.00,,2013-01-19 13:13:00,
2013-01-19 08:22:00,27.0,23.0,30.33,SW,219,0.0,0.0,86,0.00,,,0.00,,2013-01-19 13:22:00,
2013-01-19 08:33:00,27.0,24.0,30.33,SW,219,0.0,0.0,87,0.00,,,0.00,,2013-01-19 13:33:00,
2013-01-19 08:43:00,27.0,24.0,30.33,SW,219,0.0,0.0,87,0.00,,,0.00,,2013-01-19 13:43:00,
2013-01-19 08:54:00,29.0,25.0,30.34,SW,219,0.0,0.0,86,0.00,,,0.00,,2013-01-19 13:54:00,
2013-01-19 09:03:00,30.0,25.0,30.33,SW,219,0.0,0.0,82,0.00,,,0.00,,2013-01-19 14:03:00,
2013-01-19 09:12:00,30.0,25.0,30.33,SW,219,0.0,0.0,82,0.00,,,0.00,,2013-01-19 14:12:00,
2013-01-19 09:23:00,31.0,26.0,30.33,SW,219,0.0,0.0,81,0.00,,,0.00,,2013-01-19 14:23:00,
2013-01-19 09:34:00,32.0,27.0,30.34,SW,219,0.0,1.0,81,0.00,,,0.00,,2013-01-19 14:34:00,
2013-01-19 09:43:00,32.0,27.0,30.34,SW,219,0.0,1.0,81,0.00,,,0.00,,2013-01-19 14:43:00,
2013-01-19 09:53:00,33.0,28.0,30.34,SSW,198,0.0,2.0,80,0.00,,,0.00,,2013-01-19 14:53:00,
2013-01-19 10:03:00,34.0,28.0,30.34,South,178,0.0,2.0,77,0.00,,,0.00,,2013-01-19 15:03:00,
2013-01-19 10:13:00,34.0,28.0,30.34,South,178,0.0,2.0,77,0.00,,,0.00,,2013-01-19 15:13:00,
2013-01-19 10:23:00,37.0,29.0,30.33,SSE,157,0.0,1.0,73,0.00,,,0.00,,2013-01-19 15:23:00,
2013-01-19 10:33:00,38.0,29.0,30.32,South,181,0.0,2.0,69,0.00,,,0.00,,2013-01-19 15:33:00,
2013-01-19 10:43:00,38.0,29.0,30.32,South,181,0.0,2.0,69,0.00,,,0.00,,2013-01-19 15:43:00,
2013-01-19 10:53:00,39.0,28.0,30.31,South,188,0.0,2.0,65,0.00,,,0.00,,2013-01-19 15:53:00,
2013-01-19 11:03:00,41.0,29.0,30.32,SE,146,1.0,3.0,63,0.00,,,0.00,,2013-01-19 16:03:00,
2013-01-19 11:13:00,41.0,29.0,30.32,SE,146,1.0,3.0,63,0.00,,,0.00,,2013-01-19 16:13:00,
2013-01-19 11:23:00,41.0,29.0,30.32,South,170,0.0,3.0,62,0.00,,,0.00,,2013-01-19 16:23:00,
2013-01-19 11:33:00,42.0,29.0,30.30,South,184,1.0,3.0,60,0.00,,,0.00,,2013-01-19 16:33:00,
2013-01-19 11:43:00,42.0,29.0,30.30,South,184,1.0,3.0,60,0.00,,,0.00,,2013-01-19 16:43:00,
2013-01-19 11:54:00,44.0,28.0,30.29,SSE,159,0.0,3.0,54,0.00,,,0.00,,2013-01-19 16:54:00,
2013-01-19 12:03:00,45.0,27.0,30.28,South,180,1.0,3.0,50,0.00,,,0.00,,2013-01-19 17:03:00,
2013-01-19 12:29:00,47.0,28.0,30.26,SE,134,2.0,6.0,48,0.00,,,0.00,,2013-01-19 17:29:00,
2013-01-19 12:35:00,48.0,23.0,30.24,SE,140,4.0,7.0,37,0.00,,,0.00,,2013-01-19 17:35:00,
2013-01-19 12:48:00,48.0,23.0,30.24,SE,140,4.0,7.0,37,0.00,,,0.00,,2013-01-19 17:48:00,
2013-01-19 12:55:00,49.0,23.0,30.23,SE,134,2.0,12.0,35,0.00,,,0.00,,2013-01-19 17:55:00,
2013-01-19 13:12:00,48.0,21.0,30.22,South,171,4.0,13.0,34,0.00,,,0.00,,2013-01-19 18:12:00,
2013-01-19 13:28:00,49.0,24.0,30.21,South,170,2.0,11.0,37,0.00,,,0.00,,2013-01-19 18:28:00,
2013-01-19 13:35:00,49.0,24.0,30.21,SSE,167,3.0,9.0,37,0.00,,,0.00,,2013-01-19 18:35:00,
2013-01-19 13:45:00,49.0,24.0,30.21,SSE,167,3.0,9.0,37,0.00,,,0.00,,2013-01-19 18:45:00,
2013-01-19 14:02:00,49.0,25.0,30.20,SE,138,4.0,11.0,38,0.00,,,0.00,,2013-01-19 19:02:00,
2013-01-19 14:09:00,49.0,26.0,30.19,SSE,148,2.0,11.0,41,0.00,,,0.00,,2013-01-19 19:09:00,
2013-01-19 14:20:00,49.0,26.0,30.19,SSE,148,2.0,11.0,41,0.00,,,0.00,,2013-01-19 19:20:00,
2013-01-19 14:30:00,49.0,26.0,30.18,SSE,168,3.0,10.0,40,0.00,,,0.00,,2013-01-19 19:30:00,
2013-01-19 14:39:00,49.0,26.0,30.17,SSW,209,6.0,10.0,41,0.00,,,0.00,,2013-01-19 19:39:00,
2013-01-19 14:47:00,49.0,26.0,30.17,SSW,209,6.0,10.0,41,0.00,,,0.00,,2013-01-19 19:47:00,
2013-01-19 15:10:00,49.0,27.0,30.16,SSE,153,3.0,10.0,42,0.00,,,0.00,,2013-01-19 20:10:00,
2013-01-19 15:20:00,49.0,27.0,30.16,SSE,153,3.0,10.0,42,0.00,,,0.00,,2013-01-19 20:20:00,
2013-01-19 15:26:00,49.0,27.0,30.15,SE,145,3.0,10.0,42,0.00,,,0.00,,2013-01-19 20:26:00,
2013-01-19 15:38:00,48.0,28.0,30.15,SE,127,3.0,12.0,45,0.00,,,0.00,,2013-01-19 20:38:00,
2013-01-19 15:49:00,48.0,28.0,30.15,SE,127,3.0,12.0,45,0.00,,,0.00,,2013-01-19 20:49:00,
2013-01-19 15:59:00,48.0,28.0,30.14,South,175,2.0,9.0,45,0.00,,,0.00,,2013-01-19 20:59:00,
2013-01-19 16:07:00,48.0,28.0,30.14,SSW,211,7.0,12.0,45,0.00,,,0.00,,2013-01-19 21:07:00,
2013-01-19 16:14:00,48.0,28.0,30.14,SSW,211,7.0,12.0,45,0.00,,,0.00,,2013-01-19 21:14:00,
2013-01-19 16:27:00,47.0,27.0,30.14,South,171,3.0,12.0,45,0.00,,,0.00,,2013-01-19 21:27:00,
2013-01-19 16:45:00,47.0,28.0,30.14,South,177,6.0,12.0,47,0.00,,,0.00,,2013-01-19 21:45:00,
2013-01-19 16:51:00,47.0,28.0,30.14,South,177,6.0,12.0,47,0.00,,,0.00,,2013-01-19 21:51:00,
2013-01-19 17:01:00,46.0,27.0,30.14,SSE,149,2.0,11.0,47,0.00,,,0.00,,2013-01-19 22:01:00,
2013-01-19 17:14:00,46.0,27.0,30.14,South,184,3.0,8.0,48,0.00,,,0.00,,2013-01-19 22:14:00,
2013-01-19 17:28:00,45.0,27.0,30.15,SSE,148,2.0,12.0,48,0.00,,,0.00,,2013-01-19 22:28:00,
2013-01-19 17:35:00,44.0,26.0,30.15,South,184,2.0,10.0,48,0.00,,,0.00,,2013-01-19 22:35:00,
2013-01-19 17:48:00,44.0,26.0,30.15,South,184,2.0,10.0,48,0.00,,,0.00,,2013-01-19 22:48:00,
2013-01-19 17:58:00,44.0,26.0,30.15,South,188,1.0,7.0,49,0.00,,,0.00,,2013-01-19 22:58:00,
2013-01-19 18:13:00,43.0,26.0,30.12,ESE,112,1.0,10.0,50,0.00,,,0.00,,2013-01-19 23:13:00,
2013-01-19 18:34:00,42.0,26.0,30.13,SSW,200,1.0,6.0,52,0.00,,,0.00,,2013-01-19 23:34:00,
2013-01-19 18:46:00,42.0,26.0,30.13,SSW,200,1.0,6.0,52,0.00,,,0.00,,2013-01-19 23:46:00,
2013-01-19 19:08:00,42.0,26.0,30.14,South,169,2.0,5.0,52,0.00,,,0.00,,2013-01-20 00:08:00,
2013-01-19 19:15:00,42.0,26.0,30.14,SSE,161,0.0,4.0,53,0.00,,,0.00,,2013-01-20 00:15:00,
2013-01-19 19:35:00,41.0,26.0,30.15,South,182,1.0,4.0,54,0.00,,,0.00,,2013-01-20 00:35:00,
2013-01-19 19:46:00,41.0,26.0,30.15,South,182,1.0,4.0,54,0.00,,,0.00,,2013-01-20 00:46:00,
2013-01-19 19:58:00,41.0,26.0,30.15,SSE,163,0.0,3.0,54,0.00,,,0.00,,2013-01-20 00:58:00,
2013-01-19 20:21:00,40.0,25.0,30.15,WSW,254,0.0,3.0,55,0.00,,,0.00,,2013-01-20 01:21:00,
2013-01-19 20:27:00,40.0,25.0,30.15,SE,144,3.0,11.0,55,0.00,,,0.00,,2013-01-20 01:27:00,
2013-01-19 20:37:00,40.0,25.0,30.13,South,186,0.0,3.0,55,0.00,,,0.00,,2013-01-20 01:37:00,
2013-01-19 20:48:00,40.0,25.0,30.13,South,186,0.0,3.0,55,0.00,,,0.00,,2013-01-20 01:48:00,
2013-01-19 21:04:00,40.0,25.0,30.13,WNW,286,0.0,5.0,55,0.00,,,0.00,,2013-01-20 02:04:00,
2013-01-19 21:15:00,39.0,25.0,30.12,East,90,0.0,3.0,56,0.00,,,0.00,,2013-01-20 02:15:00,
2013-01-19 21:27:00,39.0,25.0,30.11,SSE,152,0.0,2.0,56,0.00,,,0.00,,2013-01-20 02:27:00,
2013-01-19 21:36:00,40.0,25.0,30.12,SW,232,0.0,6.0,55,0.00,,,0.00,,2013-01-20 02:36:00,
2013-01-19 21:45:00,40.0,25.0,30.12,SW,232,0.0,6.0,55,0.00,,,0.00,,2013-01-20 02:45:00,
2013-01-19 21:59:00,40.0,25.0,30.12,SSE,157,0.0,2.0,54,0.00,,,0.00,,2013-01-20 02:59:00,
2013-01-19 22:08:00,39.0,25.0,30.12,South,180,0.0,1.0,56,0.00,,,0.00,,2013-01-20 03:08:00,
2013-01-19 22:15:00,39.0,25.0,30.12,South,180,0.0,1.0,56,0.00,,,0.00,,2013-01-20 03:15:00,
2013-01-19 22:25:00,39.0,24.0,30.12,South,180,0.0,1.0,55,0.00,,,0.00,,2013-01-20 03:25:00,
2013-01-19 22:38:00,38.0,24.0,30.10,West,280,0.0,2.0,57,0.00,,,0.00,,2013-01-20 03:38:00,
2013-01-19 22:45:00,38.0,24.0,30.10,West,280,0.0,2.0,57,0.00,,,0.00,,2013-01-20 03:45:00,
2013-01-19 22:58:00,38.0,24.0,30.10,West,279,0.0,6.0,56,0.00,,,0.00,,2013-01-20 03:58:00,
2013-01-19 23:15:00,38.0,24.0,30.10,NW,311,0.0,4.0,56,0.00,,,0.00,,2013-01-20 04:15:00,
2013-01-19 23:36:00,39.0,24.0,30.09,NNW,346,0.0,1.0,54,0.00,,,0.00,,2013-01-20 04:36:00,
2013-01-19 23:44:00,39.0,24.0,30.09,NNW,346,0.0,1.0,54,0.00,,,0.00,,2013-01-20 04:44:00,
2013-01-19 23:58:00,38.0,23.0,30.10,NNE,19,0.0,3.0,55,0.00,,,0.00,,2013-01-20 04:58:00,